H1 CPF 2 NER 2025 11 30 9 334 01 glonass138 H2 1805301 9138 43508 2025 11 30 0 0 0 2025 12 3 23 45 0 900 1 1 0 0 0 1 H9 10 0 61009 0.00000 0 1917578.607 -10409357.613 -23198783.492 10 0 61009 900.00000 0 4735713.478 -9948318.326 -22998615.924 10 0 61009 1800.00000 0 7528347.266 -9705248.640 -22351484.918 10 0 61009 2700.00000 0 10224818.213 -9675886.498 -21270080.734 10 0 61009 3600.00000 0 12757320.399 -9843629.196 -19775521.329 10 0 61009 4500.00000 0 15063497.360 -10180333.239 -17896934.593 10 0 61009 5400.00000 0 17088813.429 -10647614.856 -15670886.326 10 0 61009 6300.00000 0 18788605.255 -11198595.507 -13140665.290 10 0 61009 7200.00000 0 20129729.223 -11780018.139 -10355439.367 10 0 61009 8100.00000 0 21091737.504 -12334644.501 -7369299.226 10 0 61009 9000.00000 0 21667535.068 -12803832.139 -4240208.089 10 0 61009 9900.00000 0 21863491.606 -13130182.194 -1028877.955 10 0 61009 10800.00000 0 21699005.090 -13260146.311 2202405.932 10 0 61009 11700.00000 0 21205536.444 -13146482.676 5390989.679 10 0 61009 12600.00000 0 20425156.842 -12750457.645 8475061.100 10 0 61009 13500.00000 0 19408669.356 -12043700.106 11394842.608 10 0 61009 14400.00000 0 18213384.198 -11009630.282 14093743.844 10 0 61009 15300.00000 0 16900641.140 -9644402.462 16519452.107 10 0 61009 16200.00000 0 15533182.905 -7957321.399 18624940.044 10 0 61009 17100.00000 0 14172489.321 -5970713.910 20369371.698 10 0 61009 18000.00000 0 12876183.459 -3719259.806 21718890.018 10 0 61009 18900.00000 0 11695617.784 -1248808.538 22647271.186 10 0 61009 19800.00000 0 10673740.793 1385270.824 23136433.557 10 0 61009 20700.00000 0 9843332.916 4120139.430 23176791.594 10 0 61009 21600.00000 0 9225685.201 6887854.885 22767447.928 10 0 61009 22500.00000 0 8829775.958 9617957.342 21916219.458 10 0 61009 23400.00000 0 8651979.995 12240169.463 20639496.352 10 0 61009 24300.00000 0 8676322.938 14687099.324 18961935.748 10 0 61009 25200.00000 0 8875270.474 16896834.713 16915995.002 10 0 61009 26100.00000 0 9211019.876 18815321.306 14541312.379 10 0 61009 27000.00000 0 9637239.954 20398425.702 11883946.087 10 0 61009 27900.00000 0 10101186.457 21613597.036 8995485.513 10 0 61009 28800.00000 0 10546103.685 22441057.281 5932051.314 10 0 61009 29700.00000 0 10913810.588 22874469.964 2753203.556 10 0 61009 30600.00000 0 11147361.320 22921058.871 -479220.731 10 0 61009 31500.00000 0 11193666.648 22601171.540 -3702317.407 10 0 61009 32400.00000 0 11005963.949 21947306.021 -6853348.071 10 0 61009 33300.00000 0 10546029.737 21002642.229 -9870970.894 10 0 61009 34200.00000 0 9786039.520 19819140.436 -12696444.246 10 0 61009 35100.00000 0 8709994.810 18455287.969 -15274778.639 10 0 61009 36000.00000 0 7314655.602 16973590.007 -17555813.624 10 0 61009 36900.00000 0 5609937.782 15437911.259 -19495197.994 10 0 61009 37800.00000 0 3618757.759 13910781.262 -21055253.907 10 0 61009 38700.00000 0 1376330.097 12450777.283 -22205708.127 10 0 61009 39600.00000 0 -1071052.937 11110095.142 -22924276.439 10 0 61009 40500.00000 0 -3667709.202 9932409.816 -23197090.458 10 0 61009 41400.00000 0 -6350651.691 8951115.125 -23018959.231 10 0 61009 42300.00000 0 -9051983.980 8188015.444 -22393461.324 10 0 61009 43200.00000 0 -11701506.612 7652523.134 -21332866.340 10 0 61009 44100.00000 0 -14229426.343 7341393.936 -19857888.066 10 0 61009 45000.00000 0 -16569055.973 7239009.964 -17997274.545 10 0 61009 45900.00000 0 -18659393.090 7318196.917 -15787243.411 10 0 61009 46800.00000 0 -20447471.216 7541539.799 -13270773.667 10 0 61009 47700.00000 0 -21890386.318 7863140.614 -10496767.798 10 0 61009 48600.00000 0 -22956915.290 8230743.071 -7519100.521 10 0 61009 49500.00000 0 -23628659.981 8588134.045 -4395572.623 10 0 61009 50400.00000 0 -23900670.153 8877720.036 -1186790.207 10 0 61009 51300.00000 0 -23781520.475 9043169.618 2045008.939 10 0 61009 52200.00000 0 -23292839.375 9032010.234 5237159.176 10 0 61009 53100.00000 0 -22468310.448 8798069.676 8327777.747 10 0 61009 54000.00000 0 -21352188.976 8303659.189 11256959.155 10 0 61009 54900.00000 0 -19997396.193 7521406.040 13967930.361 10 0 61009 55800.00000 0 -18463271.396 6435658.083 16408144.784 10 0 61009 56700.00000 0 -16813075.956 5043400.695 18530294.486 10 0 61009 57600.00000 0 -15111353.401 3354646.771 20293221.596 10 0 61009 58500.00000 0 -13421255.488 1392282.281 21662711.911 10 0 61009 59400.00000 0 -11801945.367 -808627.593 22612155.989 10 0 61009 60300.00000 0 -10306185.626 -3202044.481 23123065.381 10 0 61009 61200.00000 0 -8978211.253 -5732626.568 23185434.258 10 0 61009 62100.00000 0 -7851975.764 -8337794.481 22797939.453 10 0 61009 63000.00000 0 -6949843.330 -10950109.230 21967974.678 10 0 61009 63900.00000 0 -6281781.347 -13499864.987 20711517.626 10 0 61009 64800.00000 0 -5845087.203 -15917790.256 19052831.651 10 0 61009 65700.00000 0 -5624660.818 -18137746.077 17024006.660 10 0 61009 66600.00000 0 -5593811.774 -20099309.463 14664347.027 10 0 61009 67500.00000 0 -5715567.339 -21750134.530 12019617.248 10 0 61009 68400.00000 0 -5944426.508 -23047992.548 9141159.057 10 0 61009 69300.00000 0 -6228486.055 -23962405.101 6084896.538 10 0 61009 70200.00000 0 -6511848.509 -24475801.326 2910248.291 10 0 61009 71100.00000 0 -6737209.656 -24584150.024 -321032.091 10 0 61009 72000.00000 0 -6848515.088 -24297039.574 -3546064.103 10 0 61009 72900.00000 0 -6793572.112 -23637201.938 -6702072.637 10 0 61009 73800.00000 0 -6526504.938 -22639500.840 -9727619.485 10 0 61009 74700.00000 0 -6009947.641 -21349426.960 -12563808.861 10 0 61009 75600.00000 0 -5216880.544 -19821164.167 -15155442.394 10 0 61009 76500.00000 0 -4132030.906 -18115308.925 -17452100.166 10 0 61009 77400.00000 0 -2752777.498 -16296339.756 -19409126.071 10 0 61009 78300.00000 0 -1089519.841 -14429943.966 -20988497.972 10 0 61009 79200.00000 0 834504.300 -12580314.563 -22159565.758 10 0 61009 80100.00000 0 2983946.136 -10807531.188 -22899643.197 10 0 61009 81000.00000 0 5312587.785 -9165134.844 -23194442.663 10 0 61009 81900.00000 0 7765047.322 -7697997.590 -23038344.987 10 0 61009 82800.00000 0 10278875.979 -6440575.604 -22434499.923 10 0 61009 83700.00000 0 12786960.271 -5415617.519 -21394756.071 10 0 61009 84600.00000 0 15220129.232 -4633380.637 -19939422.206 10 0 61009 85500.00000 0 17509858.487 -4091386.205 -18096865.217 10 0 61010 0.00000 0 19590958.807 -3774722.253 -15902953.013 10 0 61010 900.00000 0 21404138.806 -3656879.483 -13400352.220 10 0 61010 1800.00000 0 22898332.848 -3701083.872 -10637697.446 10 0 61010 2700.00000 0 24032701.599 -3862068.041 -7668644.388 10 0 61010 3600.00000 0 24778219.696 -4088206.155 -4550828.009 10 0 61010 4500.00000 0 25118786.264 -4323921.323 -1344744.906 10 0 61010 5400.00000 0 25051812.531 -4512263.421 1887418.288 10 0 61010 6300.00000 0 24588262.843 -4597548.196 5082987.836 10 0 61010 7200.00000 0 23752148.079 -4527946.057 8180013.870 10 0 61010 8100.00000 0 22579493.313 -4257911.193 11118466.149 10 0 61010 9000.00000 0 21116823.324 -3750348.470 13841391.734 10 0 61010 9900.00000 0 19419229.510 -2978426.589 16296012.508 10 0 61010 10800.00000 0 17548098.994 -1926960.788 18434741.863 10 0 61010 11700.00000 0 15568600.494 -593306.380 20216101.473 10 0 61010 12600.00000 0 13547031.428 1012275.337 21605521.032 10 0 61010 13500.00000 0 11548136.255 2866795.345 22576006.115 10 0 61010 14400.00000 0 9632507.060 4935253.473 23108661.710 10 0 61010 15300.00000 0 7854173.945 7171865.069 23193061.554 10 0 61010 16200.00000 0 6258484.857 9521748.557 22827456.149 10 0 61010 17100.00000 0 4880362.582 11923005.490 22018815.099 10 0 61010 18000.00000 0 3743011.124 14309108.220 20782702.346 10 0 61010 18900.00000 0 2857125.184 16611497.349 19142985.828 10 0 61010 19800.00000 0 2220635.610 18762281.936 17131386.087 10 0 61010 20700.00000 0 1819001.502 20696930.624 14786871.432 10 0 61010 21600.00000 0 1626036.719 22356841.698 12154910.270 10 0 61010 22500.00000 0 1605236.066 23691684.545 9286594.141 10 0 61010 23400.00000 0 1711545.171 24661414.007 6237647.894 10 0 61010 24300.00000 0 1893499.057 25237872.456 3067345.906 10 0 61010 25200.00000 0 2095638.451 25405911.512 -162644.451 10 0 61010 26100.00000 0 2261100.719 25163985.405 -3389469.079 10 0 61010 27000.00000 0 2334274.596 24524190.364 -6550318.839 10 0 61010 27900.00000 0 2263404.878 23511747.973 -9583661.676 10 0 61010 28800.00000 0 2003035.267 22163954.122 -12430449.972 10 0 61010 29700.00000 0 1516184.402 20528638.020 -15035278.546 10 0 61010 30600.00000 0 776161.549 18662196.575 -17347469.835 10 0 61010 31500.00000 0 -232056.083 16627287.426 -19322064.399 10 0 61010 32400.00000 0 -1510943.675 14490278.238 -20920697.128 10 0 61010 33300.00000 0 -3050084.700 12318559.850 -22112342.112 10 0 61010 34200.00000 0 -4826377.588 10177836.354 -22873911.925 10 0 61010 35100.00000 0 -6804784.928 8129505.582 -23190700.240 10 0 61010 36000.00000 0 -8939594.199 6228239.308 -23056659.855 10 0 61010 36900.00000 0 -11176137.483 4519863.606 -22474511.521 10 0 61010 37800.00000 0 -13452898.528 3039626.830 -21455682.170 10 0 61010 38700.00000 0 -15703919.395 1810926.144 -20020074.440 10 0 61010 39600.00000 0 -17861406.503 844544.139 -18195672.470 10 0 61010 40500.00000 0 -19858427.666 138425.611 -16017992.021 10 0 61010 41400.00000 0 -21631588.019 -321998.084 -13529385.794 10 0 61010 42300.00000 0 -23123573.580 -562952.502 -10778217.593 10 0 61010 43200.00000 0 -24285456.794 -620969.119 -7817921.402 10 0 61010 44100.00000 0 -25078668.336 -541098.098 -4705963.611 10 0 61010 45000.00000 0 -25476553.329 -374761.271 -1502728.569 10 0 61010 45900.00000 0 -25465447.539 -177336.696 1729650.952 10 0 61010 46800.00000 0 -25045229.108 -5577.311 4928495.756 10 0 61010 47700.00000 0 -24229323.267 85027.058 8031791.433 10 0 61010 48600.00000 0 -23044160.254 42832.761 10979385.470 10 0 61010 49500.00000 0 -21528109.381 -177538.581 13714147.368 10 0 61010 50400.00000 0 -19729933.906 -613047.055 16183069.646 10 0 61010 51300.00000 0 -17706831.115 -1290438.404 18338288.954 10 0 61010 52200.00000 0 -15522139.051 -2224880.871 20138008.145 10 0 61010 53100.00000 0 -13242804.969 -3419092.862 21547302.095 10 0 61010 54000.00000 0 -10936720.234 -4862998.981 22538792.294 10 0 61010 54900.00000 0 -8670031.708 -6533930.113 23093177.670 10 0 61010 55800.00000 0 -6504540.625 -8397360.740 23199611.633 10 0 61010 56700.00000 0 -4495296.209 -10408154.460 22855918.091 10 0 61010 57600.00000 0 -2688483.345 -12512267.596 22068641.944 10 0 61010 58500.00000 0 -1119691.563 -14648841.608 20852932.479 10 0 61010 59400.00000 0 187363.030 -16752598.725 19232261.043 10 0 61010 60300.00000 0 1221609.912 -18756442.169 17237977.374 10 0 61010 61200.00000 0 1984858.293 -20594153.317 14908712.047 10 0 61010 62100.00000 0 2491483.571 -22203073.614 12289635.484 10 0 61010 63000.00000 0 2767579.380 -23526658.971 9431586.957 10 0 61010 63900.00000 0 2849611.039 -24516799.224 6390089.843 10 0 61010 64800.00000 0 2782627.537 -25135804.576 3224271.963 10 0 61010 65700.00000 0 2618108.050 -25357974.562 -4287.950 10 0 61010 66600.00000 0 2411534.876 -25170682.538 -3232764.660 10 0 61010 67500.00000 0 2219796.563 -24574929.031 -6398317.492 10 0 61010 68400.00000 0 2098532.474 -23585339.865 -9439323.054 10 0 61010 69300.00000 0 2099532.713 -22229608.631 -12296584.408 10 0 61010 70200.00000 0 2268304.979 -20547406.769 -14914492.064 10 0 61010 71100.00000 0 2641912.772 -18588807.216 -17242113.224 10 0 61010 72000.00000 0 3247177.655 -16412288.223 -19234187.379 10 0 61010 72900.00000 0 4099322.580 -14082401.630 -20852008.476 10 0 61010 73800.00000 0 5201114.391 -11667203.833 -22064176.525 10 0 61010 74700.00000 0 6542542.220 -9235557.414 -22847204.239 10 0 61010 75600.00000 0 8101045.738 -6854416.410 -23185967.488 10 0 61010 76500.00000 0 9842283.970 -4586208.425 -23073991.509 10 0 61010 77400.00000 0 11721412.571 -2486422.342 -22513568.056 10 0 61010 78300.00000 0 13684816.214 -601501.302 -21515701.982 10 0 61010 79200.00000 0 15672223.716 1032872.474 -20099888.952 10 0 61010 80100.00000 0 17619117.572 2393031.032 -18293729.119 10 0 61010 81000.00000 0 19459337.365 3468061.723 -16132384.649 10 0 61010 81900.00000 0 21127768.501 4260006.938 -13657891.860 10 0 61010 82800.00000 0 22563004.102 4783516.134 -10918341.465 10 0 61010 83700.00000 0 23709869.134 5064966.666 -7966942.883 10 0 61010 84600.00000 0 24521701.548 5141092.036 -4860990.772 10 0 61010 85500.00000 0 24962295.355 5057176.723 -1660753.847 10 0 61011 0.00000 0 25007424.709 4864894.783 1571692.172 10 0 61011 900.00000 0 24645885.528 4619884.039 4773666.681 10 0 61011 1800.00000 0 23880011.352 4379159.061 7883093.755 10 0 61011 2700.00000 0 22725642.163 4198471.982 10839701.671 10 0 61011 3600.00000 0 21211547.389 4129732.903 13586185.113 10 0 61011 4500.00000 0 19378327.213 4218598.600 16069309.601 10 0 61011 5400.00000 0 17276837.795 4502331.176 18240937.019 10 0 61011 6300.00000 0 14966205.578 5008016.957 20058952.987 10 0 61011 7200.00000 0 12511512.786 5751220.841 21488078.763 10 0 61011 8100.00000 0 9981249.573 6735133.202 22500552.571 10 0 61011 9000.00000 0 7444637.800 7950246.057 23076667.707 10 0 61011 9900.00000 0 4968936.639 9374573.249 23205157.275 10 0 61011 10800.00000 0 2616840.881 10974406.942 22883418.187 10 0 61011 11700.00000 0 444079.057 12705580.458 22117569.795 10 0 61011 12600.00000 0 -1502689.609 14515186.396 20922345.439 10 0 61011 13500.00000 0 -3187592.590 16343679.909 19320818.165 10 0 61011 14400.00000 0 -4586804.758 18127280.664 17343964.819 10 0 61011 15300.00000 0 -5689300.073 19800574.107 15030075.829 10 0 61011 16200.00000 0 -6497063.052 21299203.817 12424020.994 10 0 61011 17100.00000 0 -7024751.320 22562542.304 9576384.503 10 0 61011 18000.00000 0 -7298823.593 23536227.885 6542485.367 10 0 61011 18900.00000 0 -7356170.092 24174460.365 3381301.898 10 0 61011 19800.00000 0 -7242303.662 24441957.963 154321.264 10 0 61011 20700.00000 0 -7009188.686 24315491.893 -3075663.028 10 0 61011 21600.00000 0 -6712800.603 23784932.753 -6245781.518 10 0 61011 22500.00000 0 -6410520.509 22853763.517 -9294322.051 10 0 61011 23400.00000 0 -6158476.484 21539036.631 -12161940.727 10 0 61011 24300.00000 0 -6008945.656 19870776.407 -14792825.826 10 0 61011 25200.00000 0 -6007928.316 17890851.600 -17135791.118 10 0 61011 26100.00000 0 -6192997.944 15651365.505 -19145276.529 10 0 61011 27000.00000 0 -6591519.053 13212631.397 -20782236.288 10 0 61011 27900.00000 0 -7219308.834 10640818.403 -22014897.268 10 0 61011 28800.00000 0 -8079799.590 8005366.672 -22819372.989 10 0 61011 29700.00000 0 -9163737.495 5376279.966 -23180121.903 10 0 61011 30600.00000 0 -10449430.480 2821408.574 -23090241.721 10 0 61011 31500.00000 0 -11903534.807 403835.467 -22551594.870 10 0 61011 32400.00000 0 -13482347.280 -1820526.181 -21574763.378 10 0 61011 33300.00000 0 -15133548.818 -3805025.155 -20178834.741 10 0 61011 34200.00000 0 -16798326.318 -5513968.268 -18391023.483 10 0 61011 35100.00000 0 -18413783.913 -6923851.401 -16246136.128 10 0 61011 36000.00000 0 -19915542.757 -8024075.987 -13785890.220 10 0 61011 36900.00000 0 -21240420.551 -8817123.019 -11058100.726 10 0 61011 37800.00000 0 -22329078.753 -9318179.250 -8115749.673 10 0 61011 38700.00000 0 -23128526.792 -9554233.115 -5015957.065 10 0 61011 39600.00000 0 -23594378.507 -9562680.010 -1818873.037 10 0 61011 40500.00000 0 -23692766.490 -9389496.933 1413487.270 10 0 61011 41400.00000 0 -23401834.231 -9087064.450 4618443.567 10 0 61011 42300.00000 0 -22712743.682 -8711728.509 7733861.806 10 0 61011 43200.00000 0 -21630156.044 -8321205.360 10699353.763 10 0 61011 44100.00000 0 -20172165.547 -7971939.219 13457441.837 10 0 61011 45000.00000 0 -18369688.761 -7716524.089 15954666.859 10 0 61011 45900.00000 0 -16265334.486 -7601298.287 18142617.956 10 0 61011 46800.00000 0 -13911800.742 -7664212.877 19978865.164 10 0 61011 47700.00000 0 -11369864.820 -7933063.710 21427777.347 10 0 61011 48600.00000 0 -8706049.042 -8424161.548 22461210.235 10 0 61011 49500.00000 0 -5990058.104 -9141496.613 23059051.796 10 0 61011 50400.00000 0 -3292093.257 -10076433.371 23209614.689 10 0 61011 51300.00000 0 -680153.618 -11207949.423 22909868.269 10 0 61011 52200.00000 0 1782564.539 -12503409.864 22165505.410 10 0 61011 53100.00000 0 4040063.467 -13919846.164 20990842.254 10 0 61011 54000.00000 0 6045635.880 -15405687.594 19408552.006 10 0 61011 54900.00000 0 7763566.710 -16902874.114 17449236.814 10 0 61011 55800.00000 0 9170374.127 -18349263.360 15150844.930 10 0 61011 56700.00000 0 10255538.258 -19681231.620 12557943.251 10 0 61011 57600.00000 0 11021687.274 -20836359.973 9720858.412 10 0 61011 58500.00000 0 11484233.153 -21756092.591 6694702.394 10 0 61011 59400.00000 0 11670472.667 -22388254.788 3538301.237 10 0 61011 60300.00000 0 11618191.824 -22689323.830 313047.715 10 0 61011 61200.00000 0 11373833.249 -22626355.568 -2918299.206 10 0 61011 62100.00000 0 10990304.743 -22178484.273 -6092844.011 10 0 61011 63000.00000 0 10524522.772 -21337931.112 -9148788.396 10 0 61011 63900.00000 0 10034796.071 -20110477.479 -12026643.940 10 0 61011 64800.00000 0 9578161.405 -18515382.334 -14670398.957 10 0 61011 65700.00000 0 9207785.559 -16584746.294 -17028615.837 10 0 61011 66600.00000 0 8970544.617 -14362348.879 -19055436.735 10 0 61011 67500.00000 0 8904883.817 -11902007.615 -20711477.663 10 0 61011 68400.00000 0 9039049.064 -9265527.787 -21964593.524 10 0 61011 69300.00000 0 9389765.108 -6520328.812 -22790499.431 10 0 61011 70200.00000 0 9961416.229 -3736846.447 -23173236.796 10 0 61011 71100.00000 0 10745763.826 -985819.139 -23105475.794 10 0 61011 72000.00000 0 11722212.533 1664428.687 -22588649.123 10 0 61011 72900.00000 0 12858613.364 4150593.889 -21632915.205 10 0 61011 73800.00000 0 14112569.803 6416784.831 -20256952.251 10 0 61011 74700.00000 0 15433191.724 8416596.285 -18487587.701 10 0 61011 75600.00000 0 16763223.302 10114784.120 -16359270.667 10 0 61011 76500.00000 0 18041455.492 11488471.705 -13913397.806 10 0 61011 77400.00000 0 19205321.798 12527839.537 -11197505.914 10 0 61011 78300.00000 0 20193568.386 13236271.191 -8264346.900 10 0 61011 79200.00000 0 20948886.559 13629951.363 -5170863.120 10 0 61011 80100.00000 0 21420397.152 13736934.578 -1977082.945 10 0 61011 81000.00000 0 21565882.635 13595725.224 1255042.038 10 0 61011 81900.00000 0 21353673.299 13253429.827 4462835.700 10 0 61011 82800.00000 0 20764108.338 12763560.315 7584108.715 10 0 61011 83700.00000 0 19790510.465 12183581.363 10558359.263 10 0 61011 84600.00000 0 18439632.964 11572305.483 13327940.086 10 0 61011 85500.00000 0 16731560.078 10987245.658 15839169.622 10 0 61012 0.00000 0 14699064.498 10482036.901 18043366.008 10 0 61012 900.00000 0 12386446.843 10104034.803 19897785.681 10 0 61012 1800.00000 0 9847907.311 9892192.481 21366446.134 10 0 61012 2700.00000 0 7145512.517 9875304.128 22420821.466 10 0 61012 3600.00000 0 4346843.364 10070689.660 23040394.799 10 0 61012 4500.00000 0 1522419.261 10483375.710 23213058.407 10 0 61012 5400.00000 0 -1256995.633 11105807.950 22935353.709 10 0 61012 6300.00000 0 -3923093.694 11918107.724 22212546.236 10 0 61012 7200.00000 0 -6412621.661 12888863.364 21058533.582 10 0 61012 8100.00000 0 -8669768.100 13976424.274 19495587.272 10 0 61012 9000.00000 0 -10648241.973 15130644.810 17553932.486 10 0 61012 9900.00000 0 -12312956.192 16295005.916 15271172.645 10 0 61012 10800.00000 0 -13641246.219 17409026.272 12691568.832 10 0 61012 11700.00000 0 -14623572.879 18410862.123 9865187.040 10 0 61012 12600.00000 0 -15263679.949 19239986.382 6846929.074 10 0 61012 13500.00000 0 -15578200.033 19839833.735 3695465.566 10 0 61012 14400.00000 0 -15595725.445 20160299.379 472091.854 10 0 61012 15300.00000 0 -15355383.699 20159984.721 -2760470.560 10 0 61012 16200.00000 0 -14904978.339 19808093.872 -5939302.856 10 0 61012 17100.00000 0 -14298774.565 19085899.338 -9002523.124 10 0 61012 18000.00000 0 -13595024.364 17987713.629 -11890500.727 10 0 61012 18900.00000 0 -12853337.044 16521324.571 -14547026.033 10 0 61012 19800.00000 0 -12132007.601 14707874.924 -16920411.748 10 0 61012 20700.00000 0 -11485417.010 12581190.707 -18964503.635 10 0 61012 21600.00000 0 -10961615.210 10186585.969 -20639580.527 10 0 61012 22500.00000 0 -10600189.469 7579193.906 -21913126.067 10 0 61012 23400.00000 0 -10430508.379 4821894.111 -22760457.369 10 0 61012 24300.00000 0 -10470415.474 1982922.548 -23165198.905 10 0 61012 25200.00000 0 -10725427.206 -866736.185 -23119593.104 10 0 61012 26100.00000 0 -11188468.514 -3656065.814 -22624642.394 10 0 61012 27000.00000 0 -11840156.469 -6316731.981 -21690080.714 10 0 61012 27900.00000 0 -12649619.417 -8785680.293 -20334175.742 10 0 61012 28800.00000 0 -13575816.528 -11007511.723 -18583366.239 10 0 61012 29700.00000 0 -14569301.755 -12936537.793 -16471741.959 10 0 61012 30600.00000 0 -15574357.666 -14538431.467 -14040376.455 10 0 61012 31500.00000 0 -16531409.139 -15791406.528 -11336525.890 10 0 61012 32400.00000 0 -17379615.271 -16686878.020 -8412709.434 10 0 61012 33300.00000 0 -18059530.444 -17229577.863 -5325689.077 10 0 61012 34200.00000 0 -18515722.585 -17437122.529 -2135368.649 10 0 61012 35100.00000 0 -18699238.518 -17339052.424 1096366.617 10 0 61012 36000.00000 0 -18569812.708 -16975384.665 4306847.536 10 0 61012 36900.00000 0 -18097726.504 -16394741.110 7433832.271 10 0 61012 37800.00000 0 -17265239.581 -15652131.142 10416708.109 10 0 61012 38700.00000 0 -16067533.237 -14806482.936 13197660.732 10 0 61012 39600.00000 0 -14513125.513 -13918027.225 15722788.597 10 0 61012 40500.00000 0 -12623740.107 -13045643.529 17943141.384 10 0 61012 41400.00000 0 -10433633.647 -12244280.127 19815662.987 10 0 61012 42300.00000 0 -7988408.327 -11562555.829 21304021.403 10 0 61012 43200.00000 0 -5343358.051 -11040643.850 22379310.126 10 0 61012 44100.00000 0 -2561415.432 -10708526.304 23020607.994 10 0 61012 45000.00000 0 289216.591 -10584692.430 23215387.007 10 0 61012 45900.00000 0 3137651.750 -10675335.279 22959760.312 10 0 61012 46800.00000 0 5913020.220 -10974080.937 22258565.367 10 0 61012 47700.00000 0 8547170.450 -11462262.329 21125280.099 10 0 61012 48600.00000 0 10977261.979 -12109727.019 19581772.907 10 0 61012 49500.00000 0 13148142.343 -12876146.074 17657890.232 10 0 61012 50400.00000 0 15014409.653 -13712770.018 15390888.589 10 0 61012 51300.00000 0 16542075.158 -14564558.854 12824720.864 10 0 61012 52200.00000 0 17709756.385 -15372597.071 10009189.730 10 0 61012 53100.00000 0 18509350.834 -16076692.006 6998983.879 10 0 61012 54000.00000 0 18946161.874 -16618045.733 3852615.387 10 0 61012 54900.00000 0 19038471.539 -16941886.952 631278.869 10 0 61012 55800.00000 0 18816578.329 -16999950.615 -2602344.933 10 0 61012 56700.00000 0 18321341.019 -16752699.115 -5785317.106 10 0 61012 57600.00000 0 17602290.556 -16171189.634 -8855675.153 10 0 61012 58500.00000 0 16715390.715 -15238507.176 -11753648.970 10 0 61012 59400.00000 0 15720543.169 -13950701.311 -14422833.398 10 0 61012 60300.00000 0 14678943.572 -12317185.855 -16811293.535 10 0 61012 61200.00000 0 13650401.381 -10360583.630 -18872580.447 10 0 61012 62100.00000 0 12690737.510 -8116022.087 -20566637.108 10 0 61012 63000.00000 0 11849370.243 -5629908.862 -21860576.839 10 0 61012 63900.00000 0 11167191.453 -2958238.255 -22729319.287 10 0 61012 64800.00000 0 10674822.530 -164499.278 -23156072.125 10 0 61012 65700.00000 0 10391322.998 2682727.609 -23132649.788 10 0 61012 66600.00000 0 10323405.429 5512385.089 -22659623.821 10 0 61012 67500.00000 0 10465188.773 8253656.425 -21746302.722 10 0 61012 68400.00000 0 10798499.422 10838673.261 -20410542.368 10 0 61012 69300.00000 0 11293706.376 13205101.894 -18678391.267 10 0 61012 70200.00000 0 11911054.422 15298501.443 -16583577.957 10 0 61012 71100.00000 0 12602438.459 17074357.006 -14166850.737 10 0 61012 72000.00000 0 13313543.713 18499704.414 -11475182.703 10 0 61012 72900.00000 0 13986261.236 19554280.382 -8560857.577 10 0 61012 73800.00000 0 14561276.752 20231151.554 -5480454.022 10 0 61012 74700.00000 0 14980723.572 20536797.687 -2293748.179 10 0 61012 75600.00000 0 15190787.758 20490646.957 937444.329 10 0 61012 76500.00000 0 15144155.737 20124084.191 4150464.536 10 0 61012 77400.00000 0 14802201.218 19478974.722 7283021.262 10 0 61012 78300.00000 0 14136819.226 18605766.713 10274393.893 10 0 61012 79200.00000 0 13131829.858 17561252.174 13066603.764 10 0 61012 80100.00000 0 11783892.370 16406081.024 15605531.762 10 0 61012 81000.00000 0 10102890.578 15202132.545 17841960.993 10 0 61012 81900.00000 0 8111772.540 14009854.310 19732524.906 10 0 61012 82800.00000 0 5845850.072 12885679.834 21240543.130 10 0 61012 83700.00000 0 3351585.940 11879632.683 22336729.503 10 0 61012 84600.00000 0 684917.668 11033216.915 22999759.128 10 0 61012 85500.00000 0 -2090813.979 10377681.830 23216683.834 99